Location: Helsinki
(60.1699°N, 24.9384°E)
Time: 23:32:15
(UTC+02:00)

Vanguard 2 Rocket - Pass Details

Date: 29 September 2023
Orbit: 553 x 3312 km, 32.9° (Epoch: 28 November)

Event Time Altitude Azimuth Distance (km) Brightness Sun altitude
Rises 18:13:11 0° 266° (W) 7,302 13.8 4.9°
Reaches altitude 10° 18:24:53 10° 237° (WSW) 6,017 12.6 3.5°
Maximum altitude 18:28:03 11° 227° (SW) 5,812 12.1 3.1°
Drops below altitude 10° 18:31:06 10° 217° (SW) 5,699 11.8 2.7°
Sets 18:40:39 0° 185° (S) 5,984 11.3 1.6°
